Погода в Буланихе

Россия / Алтайский край     52°48′06″N   84°55′50″E
темп.,
°C
ветер,
м/с
пор.,
м/с
влажн.,
%
обл.,
%
осадки,
мм/ч
давл.,
гПа
погр.,
м
26 сентября, вс
вс2601:00+6ююз41064100 0.4 1018536
04:00+4ю41076100 0.8 1017582
07:00+4юз41080100 1.9 1015681
10:00+2зсз5898100 2.7 1016459
13:00+4з687499 3.1 10181109
16:00+4з8106987 0.6 10201232
19:00+2зсз5108185 1.0 1022584
22:000з388998 0.0 1024296
27 сентября, пн
пн2701:00+1з3674100 0.0 1024505
04:00+1з257476 0.0 1023287
07:00−2юз238293 0.0 102541
10:00+2юз22665 0.0 1025456
13:00+5юв215378 0.0 10241145
16:00+7всв44465 0.0 10231295
19:00+4всв510615 0.0 1023329
22:000всв5117955 0.0 1023298
28 сентября, вт
вт2801:00−1св6128194 0.0 1021266
04:00−1св51181100 0.0 1020248
07:00−3св388886 0.0 1021161
10:00+2в4557100 0.0 1021443
13:00+8в3439100 0.0 1020933
16:00+9в2334100 0.0 10191168
19:00+6в224696 0.0 101916
22:00+3в33597 0.0 101925
29 сентября, ср
ср2901:00+2всв476935 0.0 1017105
04:00+1в4978100 0.0 1014159
07:00+3в4873100 0.1 1012202
10:00+4вюв4988100 1.4 1010229
13:00+6ююв4793100 2.8 1010218
16:00+10юз5108297 1.4 1010670
19:00+8юз51289100 2.7 1012659
22:00+6юз4119493 0.3 1013288
30 сентября, чт
чт3001:00+4зюз6148571 0.3 1014737
04:00+3зюз6128081 0.0 1015667
07:00+3зюз71383100 0.0 1016858
10:00+3зюз61188100 0.0 1017892
13:00+5зюз71082100 0.1 1018898
16:00+6зюз6866100 0.1 10181168
19:00+4з2481100 0.3 1018119
22:00+2юз228825 0.0 101816